When you browse on this site, cookies collect data to enhance your experience and personalize the content and advertising you see.
Visit our Privacy Policy to learn more. By continuing to use the site, you agree to this use of cookies and data.
  • In Belgium
  • List of Countries
  • For 7 days
  • Water Temperature
  • Satellite Maps
  • Weather Map
  • Weather Widgets
  • user-avatar
    Login

    Hourly Weather Lier

    Today, 20 January, Sunday

    Time Temperature Precipitation Wind Pressure Humidity
    00:00 -2°C° 0 mm 2 mps 759 mmHg 68%
    01:00 -2°C° 0 mm 2 mps 759 mmHg 68%
    02:00 -2°C° 0 mm 2 mps 759 mmHg 68%
    03:00 -3°C° 0 mm 2 mps 759 mmHg 68%
    04:00 -3°C° 0 mm 2 mps 759 mmHg 67%
    05:00 -3°C° 0 mm 2 mps 760 mmHg 67%
    06:00 -3°C° 0 mm 2 mps 760 mmHg 66%
    07:00 -2°C° 0 mm 2 mps 760 mmHg 64%
    08:00 -2°C° 0 mm 2 mps 761 mmHg 62%
    09:00 -2°C° 0 mm 3 mps 761 mmHg 60%
    10:00 -1°C° 0 mm 3 mps 761 mmHg 57%
    11:00 0°C° 0 mm 3 mps 761 mmHg 53%
    12:00 +1°C° 0 mm 3 mps 762 mmHg 49%
    13:00 +1°C° 0 mm 3 mps 762 mmHg 50%
    14:00 +1°C° 0 mm 3 mps 762 mmHg 51%
    15:00 +2°C° 0 mm 2 mps 762 mmHg 52%
    16:00 +1°C° 0 mm 2 mps 763 mmHg 55%
    17:00 -1°C° 0 mm 2 mps 763 mmHg 58%
    18:00 -2°C° 0 mm 2 mps 764 mmHg 61%
    19:00 -2°C° 0 mm 2 mps 764 mmHg 61%
    20:00 -2°C° 0 mm 2 mps 765 mmHg 60%
    21:00 -2°C° 0 mm 2 mps 766 mmHg 59%
    22:00 -2°C° 0 mm 2 mps 766 mmHg 58%
    23:00 0°C° 0 mm 1 mps 766 mmHg 57%

    Tomorrow, 21 January, Monday

    Time Temperature Precipitation Wind Pressure Humidity
    00:00 0°C° 0 mm 1 mps 766 mmHg 56%
    01:00 -1°C° 0 mm 1 mps 767 mmHg 55%
    02:00 -1°C° 0 mm 1 mps 767 mmHg 55%
    03:00 -1°C° 0 mm 1 mps 767 mmHg 54%
    04:00 -2°C° 0 mm 0 mps 767 mmHg 54%
    05:00 -2°C° 0 mm 0 mps 767 mmHg 53%
    06:00 -2°C° 0 mm 0 mps 767 mmHg 53%
    07:00 -1°C° 0 mm 0 mps 767 mmHg 51%
    08:00 -1°C° 0 mm 0 mps 767 mmHg 49%
    09:00 -1°C° 0 mm 0 mps 767 mmHg 47%
    10:00 0°C° 0 mm 0 mps 767 mmHg 44%
    11:00 +2°C° 0 mm 1 mps 767 mmHg 41%
    12:00 +3°C° 0 mm 1 mps 767 mmHg 38%
    13:00 +3°C° 0 mm 1 mps 766 mmHg 40%
    14:00 +3°C° 0 mm 1 mps 766 mmHg 43%
    15:00 +3°C° 0 mm 1 mps 765 mmHg 45%
    16:00 +2°C° 0 mm 1 mps 765 mmHg 48%
    17:00 -1°C° 0 mm 2 mps 765 mmHg 50%
    18:00 -2°C° 0 mm 2 mps 764 mmHg 53%
    19:00 -2°C° 0 mm 2 mps 764 mmHg 54%
    20:00 -2°C° 0 mm 2 mps 763 mmHg 55%
    21:00 -2°C° 0 mm 3 mps 763 mmHg 56%
    22:00 -2°C° 0 mm 3 mps 762 mmHg 55%
    23:00 -3°C° 0 mm 4 mps 761 mmHg 55%

    Day after tomorrow, 22 January, Tuesday

    Time Temperature Precipitation Wind Pressure Humidity
    00:00 -3°C° 0 mm 4 mps 760 mmHg 54%
    01:00 -4°C° 0 mm 5 mps 759 mmHg 53%
    02:00 -2°C° 0 mm 5 mps 758 mmHg 52%
    03:00 -3°C° 0 mm 6 mps 757 mmHg 52%
    04:00 -3°C° 0 mm 6 mps 755 mmHg 52%
    05:00 -2°C° 0 mm 7 mps 754 mmHg 52%
    06:00 -2°C° 0 mm 7 mps 752 mmHg 52%
    07:00 -3°C° 0.7 mm 7 mps 752 mmHg 64%
    08:00 -3°C° 0.7 mm 7 mps 751 mmHg 77%
    09:00 -3°C° 0.7 mm 7 mps 750 mmHg 89%
    10:00 -3°C° 0.8 mm 7 mps 750 mmHg 89%
    11:00 -2°C° 0.8 mm 6 mps 749 mmHg 90%
    12:00 -1°C° 0.8 mm 5 mps 749 mmHg 90%
    13:00 -1°C° 0.4 mm 4 mps 748 mmHg 92%
    14:00 0°C° 0.4 mm 3 mps 748 mmHg 94%
    15:00 +1°C° 0.4 mm 2 mps 747 mmHg 95%
    16:00 +1°C° 0 mm 2 mps 747 mmHg 95%
    17:00 -1°C° 0 mm 2 mps 747 mmHg 94%
    18:00 -1°C° 0 mm 2 mps 747 mmHg 93%
    19:00 -1°C° 0 mm 2 mps 748 mmHg 92%
    20:00 +1°C° 0 mm 1 mps 748 mmHg 91%
    21:00 +1°C° 0 mm 1 mps 748 mmHg 89%
    22:00 +1°C° 0 mm 1 mps 748 mmHg 90%
    23:00 0°C° 0 mm 1 mps 748 mmHg 90%

    23 January, Wednesday

    Time Temperature Precipitation Wind Pressure Humidity
    00:00 -2°C° 0 mm 2 mps 748 mmHg 90%
    01:00 0°C° 0 mm 1 mps 748 mmHg 90%
    02:00 0°C° 0 mm 1 mps 748 mmHg 90%
    03:00 -1°C° 0 mm 1 mps 748 mmHg 90%
    04:00 -1°C° 0 mm 1 mps 748 mmHg 90%
    05:00 -1°C° 0 mm 1 mps 748 mmHg 90%
    06:00 -1°C° 0 mm 1 mps 748 mmHg 89%
    07:00 -1°C° 0 mm 1 mps 749 mmHg 89%
    08:00 0°C° 0 mm 1 mps 749 mmHg 88%
    09:00 0°C° 0 mm 1 mps 750 mmHg 87%
    10:00 +1°C° 0 mm 1 mps 750 mmHg 87%
    11:00 +2°C° 0 mm 1 mps 750 mmHg 86%
    12:00 +3°C° 0 mm 1 mps 750 mmHg 86%
    13:00 +3°C° 0 mm 1 mps 751 mmHg 86%
    14:00 +3°C° 0 mm 1 mps 751 mmHg 87%
    15:00 +2°C° 0 mm 1 mps 751 mmHg 87%
    16:00 +2°C° 0 mm 1 mps 752 mmHg 87%
    17:00 +1°C° 0 mm 1 mps 752 mmHg 87%
    18:00 0°C° 0 mm 1 mps 753 mmHg 88%
    19:00 0°C° 0 mm 1 mps 753 mmHg 88%
    20:00 0°C° 0 mm 1 mps 754 mmHg 88%
    21:00 -1°C° 0 mm 0 mps 754 mmHg 88%
    22:00 0°C° 0 mm 1 mps 755 mmHg 89%
    23:00 0°C° 0 mm 1 mps 755 mmHg 89%

    24 January, Thursday

    Time Temperature Precipitation Wind Pressure Humidity
    00:00 0°C° 0 mm 1 mps 755 mmHg 90%
    01:00 0°C° 0 mm 1 mps 756 mmHg 90%
    02:00 0°C° 0 mm 1 mps 756 mmHg 90%
    03:00 0°C° 0 mm 1 mps 756 mmHg 91%
    04:00 0°C° 0 mm 1 mps 757 mmHg 90%
    05:00 +1°C° 0 mm 1 mps 757 mmHg 90%
    06:00 +1°C° 0 mm 1 mps 757 mmHg 89%
    07:00 0°C° 0 mm 0 mps 758 mmHg 88%
    08:00 0°C° 0 mm 0 mps 758 mmHg 87%
    09:00 0°C° 0 mm 0 mps 759 mmHg 86%
    10:00 +1°C° 0 mm 0 mps 759 mmHg 85%
    11:00 +2°C° 0 mm 0 mps 760 mmHg 84%
    12:00 +3°C° 0 mm 0 mps 760 mmHg 83%
    13:00 +2°C° 0 mm 0 mps 760 mmHg 84%
    14:00 +2°C° 0 mm 0 mps 760 mmHg 85%
    15:00 +2°C° 0 mm 0 mps 760 mmHg 87%
    16:00 +2°C° 0 mm 1 mps 761 mmHg 88%
    17:00 +1°C° 0 mm 1 mps 762 mmHg 89%
    18:00 0°C° 0 mm 1 mps 763 mmHg 90%
    19:00 0°C° 0 mm 1 mps 763 mmHg 90%
    20:00 0°C° 0 mm 1 mps 764 mmHg 91%
    21:00 -1°C° 0 mm 1 mps 764 mmHg 91%
    22:00 -1°C° 0 mm 1 mps 765 mmHg 91%
    23:00 -2°C° 0 mm 0 mps 765 mmHg 91%

    25 January, Friday

    Time Temperature Precipitation Wind Pressure Humidity
    00:00 -2°C° 0 mm 0 mps 765 mmHg 90%
    01:00 -2°C° 0 mm 0 mps 765 mmHg 90%
    02:00 -2°C° 0 mm 0 mps 765 mmHg 89%
    03:00 -2°C° 0 mm 0 mps 766 mmHg 89%
    04:00 -2°C° 0 mm 0 mps 766 mmHg 89%
    05:00 -2°C° 0 mm 0 mps 766 mmHg 88%
    06:00 -2°C° 0 mm 0 mps 767 mmHg 88%
    07:00 -2°C° 0 mm 0 mps 767 mmHg 87%
    08:00 -1°C° 0 mm 0 mps 767 mmHg 85%
    09:00 0°C° 0 mm 1 mps 768 mmHg 84%
    10:00 +1°C° 0 mm 1 mps 767 mmHg 82%
    11:00 +2°C° 0 mm 1 mps 767 mmHg 80%
    12:00 +3°C° 0 mm 1 mps 767 mmHg 78%
    13:00 +2°C° 0 mm 2 mps 767 mmHg 81%
    14:00 +1°C° 0 mm 2 mps 767 mmHg 83%
    15:00 +1°C° 0 mm 2 mps 767 mmHg 85%
    16:00 +1°C° 0 mm 2 mps 767 mmHg 87%
    17:00 +1°C° 0 mm 2 mps 767 mmHg 88%
    18:00 -1°C° 0 mm 2 mps 767 mmHg 89%
    19:00 -1°C° 0 mm 3 mps 767 mmHg 89%
    20:00 -1°C° 0 mm 3 mps 767 mmHg 88%
    21:00 -1°C° 0 mm 3 mps 767 mmHg 88%
    22:00 -1°C° 0 mm 4 mps 767 mmHg 87%
    23:00 -1°C° 0 mm 4 mps 767 mmHg 87%
    Show more